SCP
0 0 0 0 0 0 0 0 0 0 0 0 0 0 0 0 0 0 0 0 0 0 0 0 0 0 0 0 0 0 0 0 0 0 0 0 0 0
0 0 0 0 0 0 0 0 0 0 0 0 0 0 0 0 0 0 0 0 0 0 0 0 0 0 0 0 0 0 0 0 0 0 0 0 0 0
0 0 0 0 0 0 0 0 0 0 0 0 0 0 0 0 0 0 0 0 0 0 0 0 0 0 0 0 0 0 0 0 0 0 0 0 0 0
0 0 0 0 0 0 0 0 0 0 0 0 0 0 0 0 0 0 0 0 0 0 0 0 0 0 0 0 0 0 0 0 0 0 0 0 0 0
0 0 0 0 0 0 0 0 0 0 0 0 0 0 0 0 0 0 0 0 0 0 0 0 0 0 0 0 0 0 0 0 0 0 0 0 0 0
0 0 0 0 0 0 0 0 0 0 0 0 0 0 0 0 0 0 0 0 0 0 0 0 0 0 0 0 0 0 0 0 0 0 0 0 0 0
0 0 0 0 0 0 0 0 0 0 0 0 0 0 0 0 0 0 0 0 0 0 0 0 0 0 0 0 0 0 0 0 0 0 0 0 0 0
0 0 0 0 0 0 0 0 0 0 0 0 0 0 0 0 0 0 0 0 0 0 0 0 0 0 0 0 0 0 0 0 0 0 0 0 0 0
0 0 0 0 0 0 0 0 0 0 0 0 0 0 0 0 0 0 0 0 0 0 0 0 0 0 0 0 0 0 0 0 0 0 0 0 0 0
0 0 0 0 0 0 0 0 0 0 0 0 0 0 0 0 0 0 0 0 0 0 0 0 0 0 0 0 0 0 0 0 0 0 0 0 0 0
0 0 0 0 0 0 0 0 0 0 0 0 0 0 0 0 0 0 0 0 0 0 0 0 0 0 0 0 0 0 0 0 0 0 0 0 0 0
0 0 0 0 0 0 0 0 0 0 0 0 0 0 0 0 0 0 0 0 0 0 0 0 0 0 0 0 0 0 0 0 0 0 0 0 0 0
0 0 0 0 0 0 0 0 0 0 0 0 0 0 0 0 0 0 0 0 0 0 0 0 0 0 0 0 0 0 0 0 0 0 0 0 0 0
0 0 0 0 0 0 0 0 0 0 0 0 0 0 0 0 0 0 0 0 0 0 0 0 0 0 0 0 0 0 0 0 0 0 0 0 0 0
0 0 0 0 0 0 0 0 0 0 0 0 0 0 0 0 0 0 0 0 0 0 0 0 0 0 0 0 0 0 0 0 0 0 0 0 0 0
0 0 0 0 0 0 0 0 0 0 0 0 0 0 0 0 0 0 0 0 0 0 0 0 0 0 0 0 0 0 0 0 0 0 0 0 0 0
0 0 0 0 0 0 0 0 0 0 0 0 0 0 0 0 0 0 0 0 0 0 0 0 0 0 0 0 0 0 0 0 0 0 0 0 0 0
0 0 0 0 0 0 0 0 0 0 0 0 0 0 0 0 0 0 0 0 0 0 0 0 0 0 0 0 0 0 0 0 0 0 0 0 0 0
0 0 0 0 0 0 0 0 0 0 0 0 0 0 0 0 0 0 0 0 0 0 0 0 0 0 0 0 0 0 0 0 0 0 0 0 0 0
0 0 0 0 0 0 0 0 0 0 0 0 0 0 0 0 0 0 0 0 0 0 0 0 0 0 0 0 0 0 0 0 0 0 0 0 0 0
0 0 0 0 0 0 0 0 0 0 0 0 0 0 0 0 0 0 0 0 0 0 0 0 0 0 0 0 0 0 0 0 0 0 0 0 0 0
0 0 0 0 0 0 0 0 0 0 0 0 0 0 0 0 0 0 0 0 0 0 0 0 0 0 0 0 0 0 0 0 0 0 0 0 0 0
0 0 0 0 0 0 0 0 0 0 0 0 0 0 0 0 0 0 0 0 0 0 0 0 0 0 0 0 0 0 0 0 0 0 0 0 0 0
Wind_Speed_500mb
72 71 69 67 64 58 53 54 61 54 51 55 43 54 48 45 45 56 59 50 48 47 48 47 53 54 71 64 65 65 59 60 60 58 51 48 48 48
70 68 62 59 53 49 55 53 52 52 63 61 63 66 59 58 57 61 62 53 48 43 44 50 53 56 65 62 66 62 57 60 59 55 55 52 51 51
66 62 58 52 51 53 54 49 53 50 60 66 73 68 64 62 65 70 66 55 50 49 46 46 45 54 63 65 65 63 63 65 61 58 58 57 55 53
61 59 56 50 52 52 50 55 54 54 55 65 72 69 65 68 70 63 59 67 57 54 44 49 44 44 59 65 67 62 61 66 60 62 56 58 56 57
61 59 56 56 57 59 61 55 55 57 61 67 69 70 70 66 61 63 57 46 45 41 40 41 41 46 57 65 68 64 65 65 64 67 64 64 65 66
60 61 60 60 55 59 56 57 59 58 60 63 66 64 58 61 55 50 46 43 45 42 40 41 44 47 56 67 66 68 68 68 68 70 75 65 64 65
61 59 59 57 57 58 62 57 64 65 65 65 58 53 50 42 40 46 47 45 46 45 42 42 40 43 47 55 67 70 70 67 69 76 74 67 59 66
61 59 59 56 56 58 62 59 65 57 48 44 39 36 37 37 38 40 44 45 47 42 39 38 39 40 41 48 55 65 70 72 74 82 76 74 62 66
57 58 60 62 60 57 52 48 44 40 36 35 35 34 37 38 42 43 41 42 41 39 44 48 45 43 41 43 46 53 60 68 78 82 78 75 70 69
64 64 58 52 51 47 43 39 37 37 38 39 37 37 36 36 37 40 38 35 33 33 38 47 45 55 49 44 43 49 56 59 63 70 74 76 73 67
57 53 51 47 44 41 37 34 32 32 33 34 30 26 25 26 28 28 28 29 34 36 42 52 50 50 48 48 44 42 40 47 54 55 58 65 66 72
56 53 50 46 40 35 35 34 34 34 30 24 21 22 24 25 27 29 29 28 30 38 33 39 45 54 44 41 11 48 58 52 50 48 51 53 55 58
51 49 44 39 38 37 35 34 33 29 24 21 21 22 21 22 24 25 27 28 30 36 44 44 51 54 53 60 63 65 58 54 57 58 60 61 60 61
46 43 42 40 36 33 30 28 29 25 24 20 17 18 19 21 24 25 27 31 35 40 43 47 52 51 54 62 69 67 64 62 61 63 61 59 58 61
45 43 41 38 36 33 32 30 27 25 23 17 14 16 20 24 26 27 29 32 33 36 37 40 44 43 44 51 59 62 64 64 48 51 52 50 51 52
47 47 42 40 37 35 34 33 25 22 18 14 12 13 15 17 22 25 26 28 32 34 33 34 34 37 44 48 49 56 55 49 57 50 51 54 49 45
51 50 48 44 40 37 34 28 23 19 15 11 9 10 12 15 20 26 30 32 33 36 37 37 35 38 43 47 54 51 49 50 50 51 57 63 60 59
53 51 49 45 39 36 34 30 24 20 14 10 10 12 15 18 23 26 29 31 33 35 37 38 39 45 49 51 42 50 51 51 52 60 59 62 71 67
58 55 51 46 41 39 35 31 23 18 15 16 16 17 17 18 20 20 23 26 28 32 34 33 32 37 50 57 52 37 42 49 64 69 58 57 70 70
60 57 53 46 42 37 34 30 24 22 21 19 20 20 20 17 17 20 23 28 32 35 39 39 34 34 42 53 66 69 60 57 49 54 69 70 64 63
62 56 50 42 38 35 33 31 28 27 24 23 21 21 17 14 15 18 20 23 28 32 38 38 38 40 47 56 63 65 54 48 52 52 59 69 71 63
55 50 44 39 37 35 34 32 31 30 26 22 20 17 13 12 12 14 18 22 26 31 36 40 42 44 45 46 53 57 59 57 49 39 41 41 47 44
49 46 41 39 37 35 34 35 35 31 26 23 20 16 13 12 14 18 20 24 29 33 38 42 44 44 44 43 44 51 55 54 53 52 40 31 35 39
Wind_Direction_500mb
260 260 258 262 265 267 268 268 270 278 285 287 290 303 298 288 304 301 301 300 296 288 284 287 286 263 257 241 251 241 236 240 247 257 258 264 267 270
256 257 259 259 260 265 268 271 276 280 278 286 295 293 293 298 301 298 303 297 295 293 289 288 283 256 253 250 254 242 238 238 243 249 255 258 262 266
253 253 253 253 259 264 267 268 270 272 274 281 291 292 290 299 300 303 305 298 293 292 294 285 278 255 254 253 255 242 240 242 246 245 249 253 257 264
250 250 252 254 258 265 268 267 271 271 270 287 286 287 289 295 301 302 299 302 297 289 286 285 274 264 250 249 253 247 244 249 251 255 254 258 261 264
248 250 255 257 257 262 261 265 264 274 276 281 283 284 288 296 297 299 301 301 301 296 293 289 284 273 246 245 252 252 249 252 254 257 258 263 272 273
251 252 256 256 259 262 263 266 262 268 273 274 276 282 291 292 298 299 299 301 303 302 293 286 283 276 253 247 252 252 256 253 256 259 263 264 272 280
251 251 252 255 258 262 261 254 260 271 272 275 279 282 284 291 296 302 303 302 303 300 296 290 289 282 272 257 249 255 259 264 262 261 267 270 274 282
247 247 251 252 252 254 258 261 268 270 269 267 269 273 280 282 283 286 293 297 300 298 297 294 298 294 290 279 270 269 267 269 272 269 269 274 276 281
238 239 242 246 249 255 263 262 260 261 262 265 268 275 279 285 287 288 290 292 293 298 302 300 303 302 300 292 287 278 273 272 273 264 263 269 273 279
236 241 243 245 252 253 252 252 253 256 258 263 271 277 281 283 286 291 290 290 295 297 304 302 310 308 305 302 299 294 285 282 279 270 266 270 272 271
234 236 241 241 241 243 245 247 248 253 257 264 269 271 277 280 285 291 301 299 301 302 304 303 309 308 309 309 307 305 307 298 285 282 279 275 274 275
229 232 232 231 233 231 232 237 241 245 252 256 274 287 287 284 285 289 294 297 302 308 311 309 314 319 323 321 329 313 307 301 301 299 293 289 286 281
226 226 226 226 225 226 231 237 246 253 255 260 271 275 276 282 285 290 293 294 292 290 293 298 302 307 307 308 308 311 308 305 298 293 289 288 290 289
222 221 220 222 223 227 232 236 240 236 237 244 256 266 278 281 282 283 283 282 282 284 288 291 293 301 302 302 303 310 314 313 311 308 305 302 296 292
213 218 220 219 217 220 227 230 226 226 227 235 260 280 291 295 295 292 291 288 287 288 292 293 295 299 298 300 304 311 315 319 317 318 314 309 308 306
209 213 216 213 214 218 223 226 223 228 238 243 247 265 279 290 297 299 300 301 303 304 305 307 308 307 307 305 305 306 312 306 319 322 319 316 316 313
208 209 209 209 210 212 213 216 214 220 222 230 242 261 277 288 294 296 293 293 299 305 308 307 306 304 303 305 307 313 317 315 319 322 321 317 317 319
205 208 206 203 198 200 206 209 208 214 223 236 250 263 275 287 293 299 302 306 307 311 315 318 320 319 316 311 309 312 312 313 317 319 317 312 312 317
207 206 204 200 197 200 205 212 215 224 233 246 259 267 272 277 287 295 297 306 312 313 315 319 314 307 306 304 316 311 305 303 308 308 309 308 306 307
205 204 203 201 200 203 208 216 221 231 240 251 261 268 275 284 292 291 291 296 302 302 300 298 295 296 290 292 296 298 301 306 305 298 301 302 301 303
202 202 204 202 203 210 218 225 232 239 243 247 254 259 269 279 284 289 297 302 302 302 302 305 303 298 294 290 292 296 297 289 293 298 301 303 309 310
204 202 203 205 210 220 231 238 241 242 242 244 246 251 258 267 279 289 298 301 304 306 307 310 312 311 309 306 303 304 305 307 306 302 301 299 298 302
205 205 208 215 221 230 238 245 244 243 240 238 237 237 243 259 275 287 295 299 304 307 307 308 311 313 312 309 305 304 308 314 314 317 320 309 302 295
Wind_Speed_850mb
72 71 69 67 64 58 53 54 61 54 51 55 43 54 48 45 45 56 59 50 48 47 48 47 53 54 71 64 65 65 59 60 60 58 51 48 48 48
70 68 62 59 53 49 55 53 52 52 63 61 63 66 59 58 57 61 62 53 48 43 44 50 53 56 65 62 66 62 57 60 59 55 55 52 51 51
66 62 58 52 51 53 54 49 53 50 60 66 73 68 64 62 65 70 66 55 50 49 46 46 45 54 63 65 65 63 63 65 61 58 58 57 55 53
61 59 56 50 52 52 50 55 54 54 55 65 72 69 65 68 70 63 59 67 57 54 44 49 44 44 59 65 67 62 61 66 60 62 56 58 56 57
61 59 56 56 57 59 61 55 55 57 61 67 69 70 70 66 61 63 57 46 45 41 40 41 41 46 57 65 68 64 65 65 64 67 64 64 65 66
60 61 60 60 55 59 56 57 59 58 60 63 66 64 58 61 55 50 46 43 45 42 40 41 44 47 56 67 66 68 68 68 68 70 75 65 64 65
61 59 59 57 57 58 62 57 64 65 65 65 58 53 50 42 40 46 47 45 46 45 42 42 40 43 47 55 67 70 70 67 69 76 74 67 59 66
61 59 59 56 56 58 62 59 65 57 48 44 39 36 37 37 38 40 44 45 47 42 39 38 39 40 41 48 55 65 70 72 74 82 76 74 62 66
57 58 60 62 60 57 52 48 44 40 36 35 35 34 37 38 42 43 41 42 41 39 44 48 45 43 41 43 46 53 60 68 78 82 78 75 70 69
64 64 58 52 51 47 43 39 37 37 38 39 37 37 36 36 37 40 38 35 33 33 38 47 45 55 49 44 43 49 56 59 63 70 74 76 73 67
57 53 51 47 44 41 37 34 32 32 33 34 30 26 25 26 28 28 28 29 34 36 42 52 50 50 48 48 44 42 40 47 54 55 58 65 66 72
56 53 50 46 40 35 35 34 34 34 30 24 21 22 24 25 27 29 29 28 30 38 33 39 45 54 44 41 11 48 58 52 50 48 51 53 55 58
51 49 44 39 38 37 35 34 33 29 24 21 21 22 21 22 24 25 27 28 30 36 44 44 51 54 53 60 63 65 58 54 57 58 60 61 60 61
46 43 42 40 36 33 30 28 29 25 24 20 17 18 19 21 24 25 27 31 35 40 43 47 52 51 54 62 69 67 64 62 61 63 61 59 58 61
45 43 41 38 36 33 32 30 27 25 23 17 14 16 20 24 26 27 29 32 33 36 37 40 44 43 44 51 59 62 64 64 48 51 52 50 51 52
47 47 42 40 37 35 34 33 25 22 18 14 12 13 15 17 22 25 26 28 32 34 33 34 34 37 44 48 49 56 55 49 57 50 51 54 49 45
51 50 48 44 40 37 34 28 23 19 15 11 9 10 12 15 20 26 30 32 33 36 37 37 35 38 43 47 54 51 49 50 50 51 57 63 60 59
53 51 49 45 39 36 34 30 24 20 14 10 10 12 15 18 23 26 29 31 33 35 37 38 39 45 49 51 42 50 51 51 52 60 59 62 71 67
58 55 51 46 41 39 35 31 23 18 15 16 16 17 17 18 20 20 23 26 28 32 34 33 32 37 50 57 52 37 42 49 64 69 58 57 70 70
60 57 53 46 42 37 34 30 24 22 21 19 20 20 20 17 17 20 23 28 32 35 39 39 34 34 42 53 66 69 60 57 49 54 69 70 64 63
62 56 50 42 38 35 33 31 28 27 24 23 21 21 17 14 15 18 20 23 28 32 38 38 38 40 47 56 63 65 54 48 52 52 59 69 71 63
55 50 44 39 37 35 34 32 31 30 26 22 20 17 13 12 12 14 18 22 26 31 36 40 42 44 45 46 53 57 59 57 49 39 41 41 47 44
49 46 41 39 37 35 34 35 35 31 26 23 20 16 13 12 14 18 20 24 29 33 38 42 44 44 44 43 44 51 55 54 53 52 40 31 35 39
Wind_Direction_850mb
260 260 258 262 265 267 268 268 270 278 285 287 290 303 298 288 304 301 301 300 296 288 284 287 286 263 257 241 251 241 236 240 247 257 258 264 267 270
256 257 259 259 260 265 268 271 276 280 278 286 295 293 293 298 301 298 303 297 295 293 289 288 283 256 253 250 254 242 238 238 243 249 255 258 262 266
253 253 253 253 259 264 267 268 270 272 274 281 291 292 290 299 300 303 305 298 293 292 294 285 278 255 254 253 255 242 240 242 246 245 249 253 257 264
250 250 252 254 258 265 268 267 271 271 270 287 286 287 289 295 301 302 299 302 297 289 286 285 274 264 250 249 253 247 244 249 251 255 254 258 261 264
248 250 255 257 257 262 261 265 264 274 276 281 283 284 288 296 297 299 301 301 301 296 293 289 284 273 246 245 252 252 249 252 254 257 258 263 272 273
251 252 256 256 259 262 263 266 262 268 273 274 276 282 291 292 298 299 299 301 303 302 293 286 283 276 253 247 252 252 256 253 256 259 263 264 272 280
251 251 252 255 258 262 261 254 260 271 272 275 279 282 284 291 296 302 303 302 303 300 296 290 289 282 272 257 249 255 259 264 262 261 267 270 274 282
247 247 251 252 252 254 258 261 268 270 269 267 269 273 280 282 283 286 293 297 300 298 297 294 298 294 290 279 270 269 267 269 272 269 269 274 276 281
238 239 242 246 249 255 263 262 260 261 262 265 268 275 279 285 287 288 290 292 293 298 302 300 303 302 300 292 287 278 273 272 273 264 263 269 273 279
236 241 243 245 252 253 252 252 253 256 258 263 271 277 281 283 286 291 290 290 295 297 304 302 310 308 305 302 299 294 285 282 279 270 266 270 272 271
234 236 241 241 241 243 245 247 248 253 257 264 269 271 277 280 285 291 301 299 301 302 304 303 309 308 309 309 307 305 307 298 285 282 279 275 274 275
229 232 232 231 233 231 232 237 241 245 252 256 274 287 287 284 285 289 294 297 302 308 311 309 314 319 323 321 329 313 307 301 301 299 293 289 286 281
226 226 226 226 225 226 231 237 246 253 255 260 271 275 276 282 285 290 293 294 292 290 293 298 302 307 307 308 308 311 308 305 298 293 289 288 290 289
222 221 220 222 223 227 232 236 240 236 237 244 256 266 278 281 282 283 283 282 282 284 288 291 293 301 302 302 303 310 314 313 311 308 305 302 296 292
213 218 220 219 217 220 227 230 226 226 227 235 260 280 291 295 295 292 291 288 287 288 292 293 295 299 298 300 304 311 315 319 317 318 314 309 308 306
209 213 216 213 214 218 223 226 223 228 238 243 247 265 279 290 297 299 300 301 303 304 305 307 308 307 307 305 305 306 312 306 319 322 319 316 316 313
208 209 209 209 210 212 213 216 214 220 222 230 242 261 277 288 294 296 293 293 299 305 308 307 306 304 303 305 307 313 317 315 319 322 321 317 317 319
205 208 206 203 198 200 206 209 208 214 223 236 250 263 275 287 293 299 302 306 307 311 315 318 320 319 316 311 309 312 312 313 317 319 317 312 312 317
207 206 204 200 197 200 205 212 215 224 233 246 259 267 272 277 287 295 297 306 312 313 315 319 314 307 306 304 316 311 305 303 308 308 309 308 306 307
205 204 203 201 200 203 208 216 221 231 240 251 261 268 275 284 292 291 291 296 302 302 300 298 295 296 290 292 296 298 301 306 305 298 301 302 301 303
202 202 204 202 203 210 218 225 232 239 243 247 254 259 269 279 284 289 297 302 302 302 302 305 303 298 294 290 292 296 297 289 293 298 301 303 309 310
204 202 203 205 210 220 231 238 241 242 242 244 246 251 258 267 279 289 298 301 304 306 307 310 312 311 309 306 303 304 305 307 306 302 301 299 298 302
205 205 208 215 221 230 238 245 244 243 240 238 237 237 243 259 275 287 295 299 304 307 307 308 311 313 312 309 305 304 308 314 314 317 320 309 302 295